Hourly Data Report for January 02, 2013

BAGOTVILLE A
QUEBEC

48°20'00.000" N
71°00'00.000" W
159.10 m
7060400
71727
YBG

Download Data

Hourly Data (January 2013)
Hourly Data Report for January 2, 2013
TIME
LST
Temp Definition
°C
Dew Point Definition
°C
Rel Hum Definition
%
Precip. Amount Definition
mm

Wind Dir Definition
10's deg

Wind Spd Definition
km/h
Visibility Definition
km
Stn Press Definition
kPa
Hmdx Definition


Wind Chill Definition


Weather Definition


00:00 -21.0 -25.0 70   28 22 24.1 98.99   -32 Mainly Clear
01:00 -21.3 -25.4 69   28 19 24.1 99.00   -32 Mainly Clear
02:00 -21.7 -25.0 75   28 20 24.1 99.05   -33 Mainly Clear
03:00 -22.0 -26.3 68   28 22 24.1 99.05   -34 Mainly Clear
04:00 -22.7 -26.1 74   29 15 24.1 99.06   -32 Mainly Clear
05:00 -23.5 -27.1 72   28 15 24.1 99.09   -33 Mainly Clear
06:00 -23.5 -26.0 80   28 20 24.1 99.13   -35 Mainly Clear
07:00 -23.9 -25.5 87   28 20 24.1 99.20   -35 Mainly Clear
08:00 -24.2 -27.9 71   28 19 40.2 99.29   -36 Mainly Clear
09:00 -23.5 -26.0 80   28 22 40.2 99.37   -35 Mainly Clear
10:00 -22.9 -25.4 80   29 32 40.2 99.44   -37 Mainly Clear
11:00 -22.1 -26.4 68   30 26 40.2 99.44   -35 Mainly Clear
12:00 -21.2 -24.4 75   29 37 40.2 99.42   -35 Mainly Clear
13:00 -20.9 -24.0 76   29 37 32.2 99.48   -35 Mainly Clear
14:00 -20.5 -24.4 71   29 30 24.1 99.53   -33 Mainly Clear
15:00 -19.8 -23.6 72   28 28 24.1 99.59   -32 Mainly Clear
16:00 -19.6 -23.3 72   28 22 32.2 99.69   -30 Mainly Clear
17:00 -20.2 -22.5 82   27 22 24.1 99.79   -31 Mainly Clear
18:00 -20.0 -22.2 83   28 26 24.1 99.87   -32 Mainly Clear
19:00 -20.1 -22.3 83   28 28 24.1 99.95   -32 Mainly Clear
20:00 -20.3 -24.2 71   28 30 24.1 100.00   -33 Clear
21:00 -20.8 -24.8 70   28 28 24.1 100.04   -33 Clear
22:00 -21.0 -24.2 75   27 26 24.1 100.05   -33 Mainly Clear
23:00 -21.0 -24.2 75   28 26 24.1 100.08   -33 Mainly Clear

Notes on Data Quality.

Legend

  • E = Estimated
  • M = Missing
  • NA = Not Available*
  • [empty] = Indicates an unobserved value
Date modified: